Weather History for HSSS - October, 2012

Change the Weather History Date:

Thursday, October 4, 2012

  Actual Average Record
Temperature  
Mean Temperature 92 °F -  
Max Temperature 104 °F 91 °F 107 °F (2010)
Min Temperature 81 °F 82 °F 48 °F (2008)
Cooling Degree Days 28    
Growing Degree Days 42 (Base 50)    
Moisture  
Dew Point 62 °F    
Average Humidity 40    
Maximum Humidity 74    
Minimum Humidity 15    
Precipitation  
Precipitation 0.00 in 0.01 in - ()
Sea Level Pressure  
Sea Level Pressure 29.81 in    
Wind  
Wind Speed 6 mph ()    
Max Wind Speed 81 mph    
Max Gust Speed -    
Visibility 7.1 miles    
Events      
Averages and records for this station are not official NWS values.
T = Trace of Precipitation, MM = Missing Value Source: Averaged Metar Reports

Daily Weather History Graph

Daily Weather History Graph

Search for Another Location

Airport or City:

Trip Planner

Search our weather history database for the weather conditions in past years. The results will help you decide how hot, cold, wet, or windy it might be!

Date:

Astronomy

Oct. 04, 2012 Rise Set
Actual Time 6:40 AM EAT 6:36 PM EAT
Civil Twilight 6:18 AM EAT 6:58 PM EAT
Nautical Twilight 5:53 AM EAT 7:23 PM EAT
Astronomical Twilight 5:28 AM EAT 7:47 PM EAT
Moon 9:37 PM EAT (10/4) 10:00 AM EAT (10/4)
Length of Visible Light 12h 39m
Length of Day
11h 56m
Waning Gibbous, 84% of the Moon is Illuminated
Oct 4
Waning Gibbous
Oct 8
Last Quarter
Oct 15
New
Oct 22
First Quarter
Oct 29
Full

Hourly Weather History & Observations

Time (EAT) Temp. Heat Index Dew Point Humidity Pressure Visibility Wind Dir Wind Speed Gust Speed Precip Events Conditions
12:00 AM 87.8 °F 92.6 °F 69.8 °F 55% 29.86 in - WSW 3.5 mph - N/A   Clear
12:30 AM - - - N/A% 29.86 in - SW 3.5 mph - N/A   Clear
1:00 AM 87.8 °F 92.6 °F 69.8 °F 55% 29.83 in - WSW 3.5 mph - N/A   Clear
1:30 AM - - - N/A% 29.83 in - WSW 4.6 mph - N/A   Clear
2:00 AM 86.0 °F 88.2 °F 66.2 °F 51% 29.83 in - West 3.5 mph - N/A   Clear
2:30 AM - - - N/A% 29.83 in - SSW 4.6 mph - N/A   Clear
3:00 AM 84 °F - 68 °F 50% 29.78 in 12 mi Calm Calm - -   Partly Cloudy
3:00 AM 84.2 °F 87.3 °F 68.0 °F 58% 29.83 in - SW 3.5 mph - N/A   Clear
3:30 AM - - - N/A% 29.83 in - West 3.5 mph - N/A   Clear
4:00 AM 84.2 °F 89.6 °F 71.6 °F 66% 29.80 in - West 3.5 mph - N/A   Clear
4:30 AM - - - N/A% 29.80 in - WSW 4.6 mph - N/A   Clear
5:00 AM 84.2 °F 89.6 °F 71.6 °F 66% 29.83 in - West 3.5 mph - N/A   Clear
5:30 AM - - - N/A% 29.83 in - West 3.5 mph - N/A   Clear
6:00 AM 84.2 °F 89.6 °F 71.6 °F 66% 29.83 in - West 2.3 mph - N/A   Clear
6:30 AM - - - N/A% 29.83 in - West 8.1 mph - N/A   Clear
7:00 AM 82.4 °F 88.2 °F 73.4 °F 74% 29.86 in - North 3.5 mph - N/A   Clear
7:30 AM - - - N/A% 29.86 in - NW 4.6 mph - N/A   Clear
8:00 AM 86.0 °F 90.4 °F 69.8 °F 58% 29.86 in - West 4.6 mph - N/A   Clear
8:30 AM - - - N/A% 29.86 in - NW 5.8 mph - N/A   Clear
9:00 AM 86 °F - 68 °F 46% 29.79 in 7 mi ESE 80.6 mph - -   Widespread Dust
9:00 AM 89.6 °F 93.4 °F 68.0 °F 49% 29.86 in - West 5.8 mph - N/A   Clear
9:30 AM - - - N/A% 29.89 in - West 5.8 mph - N/A   Clear
10:00 AM 91.4 °F 94.0 °F 66.2 °F 43% 29.89 in - WSW 4.6 mph - N/A   Clear
10:30 AM - - - N/A% 29.89 in - WSW 9.2 mph - N/A   Clear
11:30 AM - - - N/A% 29.86 in - West 6.9 mph - N/A   Clear
12:00 PM 96.8 °F 97.1 °F 60.8 °F 30% 29.86 in - West 9.2 mph - N/A   Clear
12:30 PM - - - N/A% 29.83 in - WSW 6.9 mph - N/A   Clear
2:00 PM 100.4 °F 98.4 °F 53.6 °F 21% 29.80 in 6.2 mi West 5.8 mph - N/A   Partly Cloudy
2:30 PM - - - N/A% 29.77 in 6.2 mi West 4.6 mph - N/A   Partly Cloudy
3:00 PM 102.2 °F - 51.8 °F 18% 29.77 in 6.2 mi West 9.2 mph - N/A   Partly Cloudy
3:30 PM - - - N/A% 29.74 in 6.2 mi West 9.2 mph - N/A   Partly Cloudy
4:00 PM 102.2 °F - 51.8 °F 18% 29.74 in 6.2 mi WNW 9.2 mph - N/A   Scattered Clouds
4:30 PM - - - N/A% 29.74 in 6.2 mi West 4.6 mph - N/A   Scattered Clouds
5:00 PM 100.4 °F 98.4 °F 53.6 °F 21% 29.71 in 6.2 mi South 3.5 mph - N/A   Scattered Clouds
5:30 PM - - - N/A% 29.71 in 6.2 mi SW 3.5 mph - N/A   Partly Cloudy
6:00 PM 100.4 °F 98.4 °F 53.6 °F 21% 29.71 in 6.2 mi West 6.9 mph - N/A   Partly Cloudy
6:30 PM - - - N/A% 29.74 in 6.2 mi WNW 6.9 mph - N/A   Partly Cloudy
7:00 PM 98.6 °F 97.2 °F 55.4 °F 24% 29.74 in 6.2 mi SSW 4.6 mph - N/A   Partly Cloudy
7:30 PM - - - N/A% 29.74 in - East 12.7 mph - N/A   Clear
8:00 PM 98.6 °F - 46.4 °F 17% 29.77 in - East 6.9 mph - N/A   Clear
9:00 PM 96 °F - 53 °F 15% 29.70 in 12 mi WSW 6.9 mph - -   Partly Cloudy
9:00 PM 95.0 °F - 51.8 °F 23% 29.80 in - WSW 6.9 mph - N/A   Clear
9:30 PM - - - N/A% 29.80 in - WSW 8.1 mph - N/A   Clear
10:00 PM 95.0 °F 93.0 °F 55.4 °F 26% 29.80 in - WSW 9.2 mph - N/A   Clear
10:30 PM - - - N/A% 29.80 in - WSW 8.1 mph - N/A   Clear
11:00 PM 93.2 °F 91.9 °F 57.2 °F 30% 29.80 in - WSW 4.6 mph - N/A   Clear
11:30 PM - - - N/A% 29.80 in - SSW 5.8 mph - N/A   Clear